{"data":{"norad_id":45535,"intl_designator":"2020-025E","name":"STARLINK-1350","alt_names":[],"object_type":"PAYLOAD","status":"ACTIVE","operator":null,"country":"US","launch_date":"2020-04-22","launch_site_code":"AFETR","launch_vehicle":null,"mission":null,"orbit_class":"UNKNOWN","rcs_meters":null,"size_class":null,"mass_kg":null,"dimensions":null,"purposes":["comms"],"wikipedia_slug":null,"has_3d_model":false,"image_url":null,"decayed_at":null,"tle_current":{"epoch":"2026-05-25T03:02:59.506368Z","epoch_age_seconds":57382,"freshness":"FRESH","line1":"1 45535U 20025E   26145.12707762  .00009302  00000+0  25609-3 0  9999","line2":"2 45535  53.0720  33.6441 0001673  75.8386 284.2803 15.37895619337910","mean_motion":15.37895619,"eccentricity":0.0001673,"inclination_deg":53.072,"raan_deg":33.6441,"arg_perigee_deg":75.8386,"mean_anomaly_deg":284.2803,"bstar":0.00025609,"rev_number":33791,"period_min":93.634443209894,"perigee_km":451.19047093336,"apogee_km":453.47594626515,"semimajor_km":6830.4702085993,"source":"CELESTRAK","updated_at":"2026-05-25T13:38:16.421137Z"}}}